Location: Chandler
(33.3060°N, 111.8410°W)
Time: 06:01:39
(UTC-07:00)

Amateur Radio Satellites - All Passes

Search period start: 11 February 2016 05:31
Search period end: 12 February 2016 05:31
Location: Chandler, 33.3060°N, 111.8410°W

Satellite Date Start Highest point End Downlink Frequencies (MHz)
Time Altitude Azimuth
YUBILEINY 11 Feb 05:35:47 05:40:40 16° 293° (WNW) 05:45:36 435.215
SO-50 11 Feb 05:43:44 05:47:43 25° 307° (NW) 05:51:47 436.795
M-CUBED/EXP-1 PRIME 11 Feb 05:44:41 05:46:51 16° 293° (WNW) 05:49:05 437.505
AUBIESAT-1 11 Feb 05:53:14 05:55:24 16° 293° (WNW) 05:57:37 437.475
CUTE-I 11 Feb 05:54:33 05:58:51 24° 96° (E) 06:03:08 437.470
HORYU 2 11 Feb 05:58:22 06:01:25 19° 292° (WNW) 06:04:29 437.375
Cubesat XI-IV 11 Feb 06:08:19 06:13:09 33° 98° (E) 06:17:57 437.490
Cosmos 2504 11 Feb 06:10:49 06:18:48 43° 283° (WNW) 06:27:09 435.465 / 435.565
BRITE-PL 11 Feb 06:11:04 06:13:37 15° 92° (E) 06:16:05 437.365/2234.400
PHONESAT 2.4 11 Feb 06:20:27 06:23:33 41° 211° (SSW) 06:26:38 2401.200-2431.200
STRAND 1 11 Feb 06:37:08 06:42:06 56° 74° (ENE) 06:47:07 437.568
LilacSat-2 11 Feb 06:43:59 06:47:46 78° 101° (ESE) 06:51:33 437.200
O/OREOS (USA 219) 11 Feb 06:44:14 06:46:31 14° 99° (E) 06:48:47 437.305
GOMX 1 11 Feb 07:08:13 07:12:03 31° 97° (E) 07:15:45 467.674
CUTE-I 11 Feb 07:34:03 07:38:53 35° 290° (WNW) 07:43:43 437.470
HO-68 11 Feb 07:42:25 07:48:02 24° 96° (E) 07:53:36 435.675
BRITE-PL 11 Feb 07:48:05 07:52:19 37° 288° (WNW) 07:56:17 437.365/2234.400
Cubesat XI-IV 11 Feb 07:48:38 07:53:01 26° 292° (WNW) 07:57:22 437.490
PRISM 11 Feb 07:54:49 07:58:56 65° 258° (WSW) 08:03:06 437.425
JUGNU 11 Feb 08:00:33 08:04:29 18° 171° (S) 08:08:24 437.505
CANX-2 11 Feb 08:01:25 08:05:07 28° 97° (E) 08:08:48 2200.000
STRAND 1 11 Feb 08:19:07 08:21:33 13° 267° (W) 08:23:59 437.568
DOVE 4 11 Feb 08:19:13 08:23:24 72° 283° (WNW) 08:27:30 437.250
O/OREOS (USA 219) 11 Feb 08:21:15 08:25:28 41° 293° (WNW) 08:29:43 437.305
COMPASS 1 11 Feb 08:38:14 08:42:07 35° 98° (E) 08:46:00 437.405
GOMX 1 11 Feb 08:47:09 08:49:52 17° 292° (WNW) 08:52:31 467.674
Oscar 11 11 Feb 08:50:36 08:53:12 15° 94° (E) 08:55:46 145.826/435.025
CUTE 1.7 + AOD 2 11 Feb 08:51:18 08:55:36 79° 283° (WNW) 08:59:53 437.475
SEEDS 11 Feb 08:54:55 08:59:11 84° 102° (ESE) 09:03:27 437.485
UWE-3 11 Feb 08:56:42 08:59:53 20° 96° (E) 09:03:07 435.000/436.395/437.385
CUBEBUG 2 11 Feb 08:58:46 09:02:31 31° 98° (E) 09:06:21 437.445
GONETS M04 11 Feb 08:59:36 09:08:12 72° 93° (E) 09:16:51
CINEMA 3 11 Feb 09:02:07 09:06:15 72° 284° (WNW) 09:10:27 145.822/145.860
AO-85 11 Feb 09:04:18 09:08:19 23° 108° (ESE) 09:12:30 145.980
AAUSAT CUBESAT 2 11 Feb 09:05:09 09:09:20 63° 100° (E) 09:13:29 437.432
Cosmos 2499 11 Feb 09:14:21 09:22:09 39° 87° (E) 09:30:09 435.465 / 435.565
UNISAT 6 11 Feb 09:15:55 09:18:47 18° 69° (ENE) 09:21:39 437.425
HO-68 11 Feb 09:29:01 09:35:58 53° 290° (WNW) 09:42:53 435.675
CANX-2 11 Feb 09:37:39 09:40:46 20° 290° (WNW) 09:43:53 2200.000
SRMSAT 11 Feb 09:39:52 09:43:26 16° 168° (SSE) 09:46:59 437.500
ZACube-1 11 Feb 09:46:21 09:50:33 57° 101° (E) 09:54:48 437.345
JUGNU 11 Feb 09:48:28 09:52:52 22° 181° (S) 09:57:14 437.505
HUMSAT D 11 Feb 09:52:34 09:55:18 17° 95° (E) 09:58:03 437.325/437.525
FUNcube-1 11 Feb 09:54:32 09:58:46 69° 101° (E) 10:03:05 145.935
QB50P1 11 Feb 09:55:02 09:55:15 10° 66° (ENE) 09:55:29 145.935-145.965
ANTELSAT 11 Feb 09:59:20 10:03:36 59° 75° (ENE) 10:07:48 437.575/2403.000
TIGRISAT 11 Feb 10:05:37 10:09:54 67° 76° (ENE) 10:14:08 435.000
DELFI C3 11 Feb 10:06:31 10:10:34 69° 101° (E) 10:14:35 145.870
PCSat 11 Feb 10:06:54 10:12:02 46° 110° (ESE) 10:17:11 145.827
AIST 1 11 Feb 10:11:33 10:15:29 33° 91° (E) 10:19:26
COMPASS 1 11 Feb 10:14:54 10:17:21 15° 292° (WNW) 10:19:49 437.405
Oscar 11 11 Feb 10:25:25 10:29:24 36° 287° (WNW) 10:33:22 145.826/435.025
UWE-3 11 Feb 10:32:47 10:36:17 26° 288° (WNW) 10:39:52 435.000/436.395/437.385
CUBEBUG 2 11 Feb 10:36:08 10:38:55 17° 290° (WNW) 10:41:44 437.445
BUGSAT 1 11 Feb 10:38:56 10:41:36 17° 69° (ENE) 10:44:14 437.445
DX 1 11 Feb 10:42:13 10:43:08 11° 93° (E) 10:44:04 434.975-435.025
AO-85 11 Feb 10:43:31 10:48:33 42° 304° (NW) 10:53:45 145.980
POLYITAN 1 11 Feb 10:44:10 10:48:10 42° 74° (ENE) 10:52:10 437.675
QB50P2 11 Feb 10:44:41 10:48:44 44° 74° (ENE) 10:52:46 145.880/145.840
RS-15 11 Feb 10:45:07 10:55:33 51° 109° (ESE) 11:06:27 29.354- 29.394
ESTCUBE 1 11 Feb 10:50:11 10:53:00 16° 94° (E) 10:55:47 437.505/2401.250
UNISAT 6 11 Feb 10:51:25 10:55:16 31° 262° (W) 10:59:05 437.425
GONETS M04 11 Feb 10:59:47 11:05:44 20° 290° (WNW) 11:11:45
Cosmos 2499 11 Feb 11:07:06 11:15:06 40° 283° (WNW) 11:23:21 435.465 / 435.565
POPSAT HIP 1 11 Feb 11:13:47 11:18:01 82° 259° (W) 11:22:16 437.405
NANOSAT C BR1 11 Feb 11:17:26 11:21:39 76° 259° (W) 11:25:52 145.865
DUCHIFAT 1 11 Feb 11:18:05 11:22:18 78° 258° (WSW) 11:26:31 145.980
QB50P1 11 Feb 11:26:21 11:30:31 55° 260° (W) 11:34:41 145.935-145.965
HUMSAT D 11 Feb 11:27:16 11:30:57 30° 288° (WNW) 11:34:40 437.325/437.525
SRMSAT 11 Feb 11:27:34 11:31:57 22° 178° (S) 11:36:21 437.500
50 SAT 11 Feb 11:33:53 11:37:40 61° 101° (E) 11:41:26 437.505
JUGNU 11 Feb 11:37:35 11:41:12 17° 191° (S) 11:44:50 437.505
VELOX 1 11 Feb 11:39:48 11:44:08 53° 101° (E) 11:48:24 145.980
CUSAT 1 11 Feb 11:49:13 11:50:55 12° 62° (ENE) 11:52:30 437.405
AIST 1 11 Feb 11:50:25 11:53:08 16° 285° (WNW) 11:55:52
PCSat 11 Feb 11:51:32 11:55:36 21° 306° (NW) 11:59:42 145.827
AISAT 11 Feb 11:56:44 12:01:09 89° 282° (WNW) 12:05:32 437.250
UKube-1 11 Feb 12:00:08 12:04:28 86° 95° (E) 12:08:47 .
SPROUT 11 Feb 12:06:54 12:10:38 29° 97° (E) 12:14:21 437.525
CUBEBUG 1 11 Feb 12:11:30 12:15:52 74° 283° (WNW) 12:20:09 437.445
BUGSAT 1 11 Feb 12:12:55 12:16:42 32° 262° (W) 12:20:28 437.445
JAS-2 11 Feb 12:15:18 12:21:12 25° 67° (ENE) 12:26:44 435.910
DX 1 11 Feb 12:15:22 12:19:34 50° 286° (WNW) 12:23:45 434.975-435.025
POLYITAN 1 11 Feb 12:22:28 12:24:08 12° 267° (W) 12:25:49 437.675
QB50P2 11 Feb 12:23:16 12:24:43 11° 267° (W) 12:26:10 145.880/145.840
ESTCUBE 1 11 Feb 12:25:42 12:29:54 37° 287° (WNW) 12:34:03 437.505/2401.250
Oscar 19 11 Feb 12:28:26 12:32:58 32° 70° (ENE) 12:37:30 437.125/150
DANDE 11 Feb 12:34:45 12:39:44 23° 67° (ENE) 12:43:47 436.750
SO-50 11 Feb 12:40:04 12:41:57 12° 46° (NE) 12:43:50 436.795
RS-15 11 Feb 12:57:41 13:08:03 43° 310° (NW) 13:19:00 29.354- 29.394
Gurwin Techsat 1B 11 Feb 13:13:27 13:18:05 32° 70° (ENE) 13:22:44 435.225
SRMSAT 11 Feb 13:16:29 13:20:28 19° 189° (S) 13:24:28 437.500
VELOX 1 11 Feb 13:18:40 13:20:05 11° 294° (WNW) 13:21:31 145.980
CUSAT 1 11 Feb 13:28:58 13:34:01 49° 268° (W) 13:37:48 437.405
ITUPSAT 1 11 Feb 13:37:06 13:40:24 18° 95° (E) 13:43:41 437.325
ITAMSAT 1 11 Feb 13:41:14 13:45:40 30° 70° (ENE) 13:50:10 435.822/435.867
SPROUT 11 Feb 13:43:26 13:46:22 18° 291° (WNW) 13:49:17 437.525
BEESAT 11 Feb 13:44:00 13:47:44 22° 96° (E) 13:51:26 436.000
TISAT 1 11 Feb 13:44:37 13:48:38 49° 286° (WNW) 13:52:39 437.305
YUBILEINY 11 Feb 13:50:02 13:57:59 36° 75° (ENE) 14:05:49 435.215
Cosmos 2491 11 Feb 13:53:18 13:59:06 20° 81° (E) 14:04:52 435.465 / 435.565
JAS-2 11 Feb 13:58:11 14:05:47 58° 259° (W) 14:12:49 435.910
ISS 11 Feb 14:04:07 14:06:38 21° 129° (SE) 14:09:09 145.825
AO-7 11 Feb 14:07:39 14:14:16 27° 60° (ENE) 14:20:53 29.400- 29.500
Oscar 19 11 Feb 14:08:01 14:12:13 25° 264° (W) 14:16:28 437.125/150
DANDE 11 Feb 14:17:11 14:22:56 37° 272° (W) 14:27:21 436.750
SO-50 11 Feb 14:18:16 14:23:02 77° 242° (WSW) 14:27:37 436.795
SWISSCUBE 11 Feb 14:35:43 14:40:33 86° 284° (WNW) 14:45:20 437.505
Gurwin Techsat 1B 11 Feb 14:53:36 14:57:58 26° 264° (W) 15:02:22 435.225
M-CUBED/EXP-1 PRIME 11 Feb 14:54:01 14:56:16 16° 67° (ENE) 14:58:27 437.505
KKS-1 11 Feb 14:55:01 14:57:36 15° 94° (E) 15:00:11 437.445
AUBIESAT-1 11 Feb 15:02:06 15:04:22 16° 67° (ENE) 15:06:34 437.475
SRMSAT 11 Feb 15:08:24 15:08:57 10° 197° (SSW) 15:09:29 437.500
ITUPSAT 1 11 Feb 15:13:53 15:18:18 37° 288° (WNW) 15:22:43 437.325
HORYU 2 11 Feb 15:16:01 15:19:04 19° 68° (ENE) 15:22:09 437.375
RS-15 11 Feb 15:19:52 15:25:02 14° 341° (NNW) 15:30:21 29.354- 29.394
ITAMSAT 1 11 Feb 15:20:45 15:25:04 26° 263° (W) 15:29:25 435.822/435.867
BEESAT 11 Feb 15:21:18 15:25:29 30° 289° (WNW) 15:29:39 436.000
ISS 11 Feb 15:40:08 15:42:57 27° 323° (NW) 15:45:47 145.825
Cosmos 2491 11 Feb 15:46:19 15:54:59 70° 278° (W) 16:03:41 435.465 / 435.565
YUBILEINY 11 Feb 15:46:37 15:54:44 42° 272° (W) 16:02:47 435.215
BEESAT 3 11 Feb 15:47:21 15:49:59 17° 110° (ESE) 15:52:38 437.485
AO-7 11 Feb 15:58:11 16:06:25 61° 256° (WSW) 16:14:42 29.400- 29.500
STARS 11 Feb 16:07:48 16:12:08 59° 102° (ESE) 16:16:25 437.465
Cosmos 2504 11 Feb 16:08:38 16:17:02 60° 80° (E) 16:24:46 435.465 / 435.565
BEESAT 2 11 Feb 16:14:28 16:17:37 22° 111° (ESE) 16:20:47 435.950
M-CUBED/EXP-1 PRIME 11 Feb 16:27:43 16:30:45 24° 257° (WSW) 16:33:38 437.505
KKS-1 11 Feb 16:30:12 16:34:16 37° 287° (WNW) 16:38:20 437.445
AUBIESAT-1 11 Feb 16:35:49 16:38:47 23° 257° (WSW) 16:41:38 437.475
MOZHAYETS 4 11 Feb 16:37:08 16:41:48 88° 288° (WNW) 16:46:27
HORYU 2 11 Feb 16:51:28 16:55:23 31° 262° (W) 16:59:20 437.375
O/OREOS (USA 219) 11 Feb 16:57:16 16:59:57 15° 60° (ENE) 17:02:39 437.305
CUTE-I 11 Feb 17:12:26 17:16:49 27° 69° (ENE) 17:21:13 437.470
BRITE-PL 11 Feb 17:16:54 17:20:19 17° 67° (ENE) 17:23:43 437.365/2234.400
LilacSat-2 11 Feb 17:22:45 17:25:37 20° 71° (ENE) 17:28:28 437.200
CUBESAT XI-V 11 Feb 17:23:46 17:27:41 26° 96° (E) 17:31:32 437.345
BEESAT 3 11 Feb 17:23:58 17:27:28 30° 304° (WNW) 17:31:01 437.485
Cubesat XI-IV 11 Feb 17:26:16 17:31:06 36° 71° (ENE) 17:35:57 437.490
RS-15 11 Feb 17:39:45 17:45:28 14° 21° (NNE) 17:51:14 29.354- 29.394
STARS 11 Feb 17:47:26 17:47:56 10° 295° (WNW) 17:48:27 437.465
BEESAT 2 11 Feb 17:52:05 17:55:22 24° 305° (NW) 17:58:41 435.950
Cosmos 2504 11 Feb 18:03:27 18:09:35 23° 278° (W) 18:15:27 435.465 / 435.565
HO-68 11 Feb 18:10:29 18:12:47 12° 56° (ENE) 18:15:05 435.675
GOMX 1 11 Feb 18:11:23 18:15:53 28° 71° (ENE) 18:20:14 467.674
AIST 2 11 Feb 18:24:09 18:28:16 64° 116° (ESE) 18:32:24 435.215
O/OREOS (USA 219) 11 Feb 18:35:12 18:39:32 43° 255° (WSW) 18:43:53 437.305
CUTE-I 11 Feb 18:52:01 18:56:41 31° 262° (W) 19:01:24 437.470
CANX-2 11 Feb 18:52:09 18:53:49 12° 67° (ENE) 18:55:29 2200.000
STRAND 1 11 Feb 18:52:21 18:56:40 27° 97° (E) 19:00:59 437.568
BRITE-PL 11 Feb 18:52:38 18:58:15 60° 260° (W) 19:03:47 437.365/2234.400
LilacSat-2 11 Feb 18:56:56 18:59:48 20° 264° (W) 19:02:41 437.200
PCSat 11 Feb 19:00:00 19:03:27 17° 52° (NE) 19:06:52 145.827
CUBESAT XI-V 11 Feb 19:01:07 19:04:56 25° 290° (WNW) 19:08:43 437.345
Cubesat XI-IV 11 Feb 19:07:06 19:11:12 23° 265° (W) 19:15:20 437.490
GONETS M04 11 Feb 19:15:46 19:23:08 29° 73° (ENE) 19:30:28
DOVE 4 11 Feb 19:19:29 19:24:35 70° 76° (ENE) 19:29:26 437.250
AO-85 11 Feb 19:19:44 19:24:44 61° 59° (ENE) 19:29:16 145.980
COMPASS 1 11 Feb 19:26:28 19:28:45 15° 68° (ENE) 19:31:02 437.405
CUTE 1.7 + AOD 2 11 Feb 19:39:51 19:43:47 40° 74° (ENE) 19:47:44 437.475
PRISM 11 Feb 19:41:20 19:44:40 23° 97° (E) 19:47:57 437.425
SEEDS 11 Feb 19:42:47 19:46:29 32° 73° (ENE) 19:50:13 437.485
GOMX 1 11 Feb 19:49:01 19:53:47 31° 263° (W) 19:58:24 467.674
RS-15 11 Feb 19:51:02 20:02:30 44° 51° (NE) 20:14:01 29.354- 29.394
AAUSAT CUBESAT 2 11 Feb 19:51:58 19:55:16 24° 71° (ENE) 19:58:35 437.432
HO-68 11 Feb 19:52:09 19:59:17 76° 73° (ENE) 20:06:29 435.675
UWE-3 11 Feb 19:52:48 19:53:11 10° 67° (ENE) 19:53:34 435.000/436.395/437.385
CUBEBUG 2 11 Feb 19:54:04 19:56:44 16° 69° (ENE) 19:59:23 437.445
CINEMA 3 11 Feb 19:59:11 20:03:46 61° 76° (ENE) 20:08:10 145.822/145.860
AIST 2 11 Feb 20:05:57 20:07:10 11° 312° (NW) 20:08:23 435.215
CANX-2 11 Feb 20:25:14 20:29:14 44° 261° (W) 20:33:17 2200.000
STRAND 1 11 Feb 20:31:20 20:35:45 29° 290° (WNW) 20:40:09 437.568
ZACube-1 11 Feb 20:38:43 20:42:12 26° 72° (ENE) 20:45:38 437.345
PCSat 11 Feb 20:41:53 20:47:14 61° 248° (WSW) 20:52:33 145.827
FUNcube-1 11 Feb 20:46:26 20:50:06 30° 73° (ENE) 20:53:44 145.935
DELFI C3 11 Feb 20:49:23 20:52:29 22° 71° (ENE) 20:55:35 145.870
COMPASS 1 11 Feb 21:00:11 21:03:59 35° 262° (W) 21:07:50 437.405
DOVE 4 11 Feb 21:02:10 21:02:32 10° 268° (W) 21:02:53 437.250
AO-85 11 Feb 21:02:57 21:04:29 11° 256° (WSW) 21:06:00 145.980
Cosmos 2499 11 Feb 21:03:37 21:11:48 63° 81° (E) 21:19:16 435.465 / 435.565
GONETS M04 11 Feb 21:11:46 21:20:12 53° 270° (W) 21:28:40
Oscar 11 11 Feb 21:15:22 21:19:39 81° 257° (WSW) 21:23:58 145.826/435.025
PRISM 11 Feb 21:16:36 21:19:51 22° 290° (WNW) 21:23:05 437.425
CUTE 1.7 + AOD 2 11 Feb 21:17:58 21:19:46 12° 267° (W) 21:21:36 437.475
SEEDS 11 Feb 21:19:42 21:22:14 16° 266° (W) 21:24:48 437.485
UWE-3 11 Feb 21:25:00 21:29:11 53° 260° (W) 21:33:18 435.000/436.395/437.385
AAUSAT CUBESAT 2 11 Feb 21:27:32 21:30:40 21° 265° (W) 21:33:50 437.432
CUBEBUG 2 11 Feb 21:29:10 21:33:06 33° 262° (W) 21:36:57 437.445
HO-68 11 Feb 21:43:33 21:47:33 16° 267° (W) 21:51:34 435.675
ANTELSAT 11 Feb 21:56:02 21:58:55 17° 95° (E) 22:01:49 437.575/2403.000
AIST 1 11 Feb 21:59:49 22:04:10 85° 84° (E) 22:08:27
TIGRISAT 11 Feb 22:01:57 22:05:04 19° 95° (E) 22:08:12 435.000
RS-15 11 Feb 22:03:30 22:15:12 54° 251° (WSW) 22:26:54 29.354- 29.394
ISS 11 Feb 22:10:37 22:13:43 42° 40° (NE) 22:16:49 145.825
50 SAT 11 Feb 22:11:23 22:13:40 16° 70° (ENE) 22:15:57 437.505
HUMSAT D 11 Feb 22:13:54 22:17:58 79° 257° (WSW) 22:22:04 437.325/437.525
ZACube-1 11 Feb 22:15:21 22:18:26 20° 264° (W) 22:21:29 437.345
FUNcube-1 11 Feb 22:23:40 22:26:22 17° 265° (W) 22:29:03 145.935
DELFI C3 11 Feb 22:24:17 22:27:16 20° 264° (W) 22:30:18 145.870
VELOX 1 11 Feb 22:33:19 22:37:08 28° 71° (ENE) 22:40:57 145.980
UNISAT 6 11 Feb 22:46:22 22:50:44 70° 101° (E) 22:55:12 437.425
AISAT 11 Feb 22:49:52 22:54:09 47° 74° (ENE) 22:58:27 437.250
UKube-1 11 Feb 22:50:34 22:54:37 41° 73° (ENE) 22:58:42 .
PHONESAT 2.4 11 Feb 22:56:01 22:58:45 24° 145° (SE) 23:01:30 2401.200-2431.200
SPROUT 11 Feb 22:57:58 23:00:17 14° 68° (ENE) 23:02:35 437.525
Cosmos 2499 11 Feb 22:58:26 23:04:00 21° 279° (W) 23:09:18 435.465 / 435.565
CUBEBUG 1 11 Feb 23:03:00 23:07:19 52° 75° (ENE) 23:11:38 437.445
POPSAT HIP 1 11 Feb 23:03:33 23:06:46 21° 96° (E) 23:09:59 437.405
DX 1 11 Feb 23:06:15 23:10:37 79° 77° (ENE) 23:15:01 434.975-435.025
NANOSAT C BR1 11 Feb 23:06:44 23:10:04 23° 96° (E) 23:13:22 145.865
DUCHIFAT 1 11 Feb 23:07:13 23:10:27 22° 96° (E) 23:13:41 145.980
QB50P1 11 Feb 23:15:34 23:19:16 30° 97° (E) 23:22:59 145.935-145.965
ESTCUBE 1 11 Feb 23:20:28 23:24:57 69° 258° (WSW) 23:29:29 437.505/2401.250
ANTELSAT 11 Feb 23:31:44 23:35:39 33° 288° (WNW) 23:39:40 437.575/2403.000
TIGRISAT 11 Feb 23:37:56 23:41:44 30° 288° (WNW) 23:45:36 435.000
50 SAT 11 Feb 23:44:23 23:47:27 25° 263° (W) 23:50:33 437.505
ISS 11 Feb 23:48:22 23:49:51 13° 234° (SW) 23:51:20 145.825
BUGSAT 1 11 Feb 23:58:37 00:02:29 45° 100° (E) 00:06:20 437.445
POLYITAN 1 12 Feb 00:08:47 00:12:54 54° 285° (WNW) 00:16:59 437.675
QB50P2 12 Feb 00:09:21 00:13:26 51° 285° (WNW) 00:17:31 145.880/145.840
VELOX 1 12 Feb 00:10:13 00:13:33 21° 264° (W) 00:16:55 145.980
UKube-1 12 Feb 00:28:43 00:30:50 13° 266° (W) 00:32:56 .
AISAT 12 Feb 00:28:59 00:30:49 12° 267° (W) 00:32:41 437.250
TISAT 1 12 Feb 00:31:46 00:35:57 67° 76° (ENE) 00:40:09 437.305
SPROUT 12 Feb 00:31:51 00:35:53 39° 262° (W) 00:39:55 437.525
PHONESAT 2.4 12 Feb 00:32:39 00:35:52 52° 339° (NNW) 00:39:05 2401.200-2431.200
POPSAT HIP 1 12 Feb 00:39:04 00:42:28 24° 289° (WNW) 00:45:52 437.405
ITUPSAT 1 12 Feb 00:40:58 00:43:23 14° 66° (ENE) 00:45:47 437.325
NANOSAT C BR1 12 Feb 00:42:24 00:45:41 23° 290° (WNW) 00:48:58 145.865
CUSAT 1 12 Feb 00:42:24 00:49:02 30° 87° (E) 00:55:45 437.405
DUCHIFAT 1 12 Feb 00:42:44 00:46:04 23° 289° (WNW) 00:49:23 145.980
CUBEBUG 1 12 Feb 00:42:44 00:43:51 11° 268° (W) 00:44:56 437.445
Oscar 19 12 Feb 00:45:20 00:48:13 15° 93° (E) 00:51:05 437.125/150
BEESAT 12 Feb 00:47:15 00:50:13 17° 67° (ENE) 00:53:13 436.000
QB50P1 12 Feb 00:52:02 00:54:48 17° 291° (WNW) 00:57:34 145.935-145.965
JAS-2 12 Feb 01:14:34 01:18:30 21° 94° (E) 01:22:19 435.910
DANDE 12 Feb 01:34:19 01:41:26 44° 89° (E) 01:49:17 436.750
Gurwin Techsat 1B 12 Feb 01:34:37 01:38:05 17° 94° (E) 01:41:33 435.225
BUGSAT 1 12 Feb 01:36:28 01:37:25 11° 293° (WNW) 01:38:22 437.445
SWISSCUBE 12 Feb 01:37:52 01:42:35 67° 75° (ENE) 01:47:19 437.505
BEESAT 3 12 Feb 01:45:01 01:48:44 38° 58° (ENE) 01:52:24 437.485
ITAMSAT 1 12 Feb 01:59:22 02:02:15 15° 93° (E) 02:05:06 435.822/435.867
Cosmos 2491 12 Feb 02:01:55 02:10:20 49° 79° (E) 02:18:45 435.465 / 435.565
PHONESAT 2.4 12 Feb 02:10:51 02:13:32 23° 355° (N) 02:16:13 2401.200-2431.200
BEESAT 2 12 Feb 02:13:26 02:17:19 51° 59° (ENE) 02:21:11 435.950
ITUPSAT 1 12 Feb 02:16:06 02:20:44 51° 260° (W) 02:25:24 437.325
Oscar 19 12 Feb 02:22:50 02:27:46 50° 287° (WNW) 02:32:41 437.125/150
BEESAT 12 Feb 02:23:09 02:27:38 42° 261° (W) 02:32:09 436.000
CUSAT 1 12 Feb 02:23:13 02:30:53 53° 282° (WNW) 02:38:43 437.405
YUBILEINY 12 Feb 02:45:17 02:53:29 47° 89° (E) 03:01:46 435.215
AIST 2 12 Feb 02:51:03 02:53:04 13° 50° (NE) 02:55:03 435.215
JAS-2 12 Feb 02:58:49 03:03:45 36° 290° (WNW) 03:08:27 435.910
STARS 12 Feb 03:00:37 03:04:28 30° 71° (ENE) 03:08:19 437.465
Gurwin Techsat 1B 12 Feb 03:13:08 03:18:13 46° 287° (WNW) 03:23:15 435.225
DANDE 12 Feb 03:17:21 03:24:24 37° 287° (WNW) 03:32:06 436.750
KKS-1 12 Feb 03:23:30 03:27:56 71° 258° (WSW) 03:32:24 437.445
BEESAT 3 12 Feb 03:24:17 03:26:06 13° 252° (WSW) 03:27:54 437.485
MOZHAYETS 4 12 Feb 03:34:44 03:39:09 52° 74° (ENE) 03:43:36
ITAMSAT 1 12 Feb 03:36:52 03:41:58 53° 287° (WNW) 03:47:02 435.822/435.867
PHONESAT 2.4 12 Feb 03:48:27 03:51:22 28° 12° (NNE) 03:54:16 2401.200-2431.200
Cosmos 2491 12 Feb 03:59:28 04:06:42 30° 275° (W) 04:13:58 435.465 / 435.565
AO-7 12 Feb 04:04:26 04:12:40 62° 104° (ESE) 04:20:49 29.400- 29.500
M-CUBED/EXP-1 PRIME 12 Feb 04:10:24 04:13:17 23° 103° (ESE) 04:16:19 437.505
AUBIESAT-1 12 Feb 04:17:56 04:20:52 24° 103° (ESE) 04:23:58 437.475
CUBESAT XI-V 12 Feb 04:23:55 04:26:50 17° 68° (ENE) 04:29:46 437.345
SO-50 12 Feb 04:27:46 04:32:38 88° 295° (WNW) 04:37:37 436.795
AIST 2 12 Feb 04:27:51 04:31:50 49° 245° (WSW) 04:35:46 435.215
STARS 12 Feb 04:37:44 04:40:50 19° 265° (W) 04:43:55 437.465
Cosmos 2504 12 Feb 04:40:04 04:48:19 57° 90° (E) 04:56:55 435.465 / 435.565
YUBILEINY 12 Feb 04:42:48 04:50:23 32° 286° (WNW) 04:58:04 435.215
HORYU 2 12 Feb 04:45:54 04:50:19 66° 101° (ESE) 04:54:45 437.375
MOZHAYETS 4 12 Feb 05:15:06 05:16:35 11° 268° (W) 05:18:03
